Content
SEND FEEDBACK

Daily
Averages
Monthly
Summary
United States of America

POINT HOPE, ALASKA


Home > North America > United States > Alaska
Elevation: 4 feet     Latitude: 68 52N     Longitude: 166 07W

WEATHER
 
SELECT A DAY
Number of Records: 224,726;   Date Range: 1/1/95 - 7/22/14
 
SHARE

PRINT THIS DATA

[ ← Previous Day ]
WEATHER ALMANAC - JANUARY 31, 2013
[ Next Day → ]
[ °C ]   °F
Weather ElementAverageHighLow
Temperature-11.5 °F-9.4 °F (7:40 pm)-13.9 °F (1:55 am)
Dewpoint-16.6 °F-14.6 °F (8:55 pm)-18.9 °F (1:55 am)
Humidity78.1 %80 % (5:55 am)77 % (11:55 am)
Barometer30.12 in30.22 in (11:40 pm)30.06 in (5:55 am)

Weather ElementAverage
Weather ElementTotal
Precipitation---
Heating Degree Days76.7 (Base 65)
Averaged from 27 records on January 31, 2013
WEATHER CONDITIONS BREAKOUT
WIND DIRECTION BREAKOUT
WEATHER BY HOUR - JANUARY 31, 2013
[ °C ]   °F
Local TimeTemperatureDewpointHumidityBarometerVisibilityWind DirectionWind SpeedGust SpeedPrecipitationEventsConditions
1:55 AM-13.9 °F-18.9 °F78 %30.07 in10.0 miNorthClear
2:55 AM-13.7 °F-18.8 °F78 %30.07 in10.0 miNorthClear
3:55 AM-13.5 °F-18.6 °F78 %30.07 in10.0 miNorthClear
4:55 AM-13.5 °F-18.6 °F78 %30.07 in10.0 miNorthClear
5:55 AM-13.2 °F-17.9 °F80 %30.06 in10.0 miNorthClear
6:55 AM-12.8 °F-17.5 °F80 %30.07 in10.0 miNorthClear
7:55 AM-12.5 °F-17.1 °F80 %30.07 in10.0 miNorthClear
8:55 AM-12.3 °F-17.5 °F78 %30.07 in10.0 miNorthClear
9:55 AM-12.3 °F-17.1 °F79 %30.08 in10.0 miNorthPartly Cloudy
10:55 AM-12.1 °F-17.3 °F78 %30.09 in10.0 miNorthClear
11:55 AM-12.1 °F-17.5 °F77 %30.09 in10.0 miNorthClear
12:55 PM-12.1 °F-17.3 °F78 %30.10 in10.0 miNorthClear
1:55 PM-11.7 °F-17.1 °F77 %30.12 in10.0 miNorthClear
2:55 PM-11.4 °F-16.4 °F78 %30.12 in10.0 miNorthClear
3:55 PM-11.0 °F-15.9 °F79 %30.13 in10.0 miNorthClear
4:55 PM-10.5 °F-15.7 °F78 %30.13 in10.0 miNorthClear
5:55 PM-10.1 °F-15.3 °F78 %30.14 in10.0 miNorthPartly Cloudy
6:55 PM-10.1 °F-15.3 °F78 %30.15 in10.0 miNorthPartly Cloudy
7:40 PM-9.4 °F-14.8 °F77 %30.16 in10.0 miNorthSnowLight Snow Showers
7:55 PM-10.1 °F-15.0 °F79 %30.16 in10.0 miNorthSnowLight Snow Showers
8:20 PM-9.4 °F-14.8 °F77 %30.17 in10.0 miNorthPartly Cloudy
8:40 PM-9.4 °F-14.8 °F77 %30.17 in10.0 miNorthSnowLight Snow Showers
8:55 PM-9.4 °F-14.6 °F78 %30.18 in6.0 miNorthSnowLight Snow Showers
9:55 PM-9.8 °F-14.8 °F78 %30.19 in7.0 miNorthSnowLight Snow
10:55 PM-10.3 °F-15.5 °F78 %30.20 in8.0 miNorthSnowLight Snow
11:40 PM-11.2 °F-16.6 °F77 %30.22 in10.0 miNorthPartly Cloudy
11:55 PM-11.7 °F-16.8 °F78 %30.22 in10.0 miNorthPartly Cloudy
Hourly data recorded from PALU, located miles away from Point Hope, Alaska







STORIES FROM OUR PARTNERS